Regional Weather Roundup
Issued by NWS

Home | Current Version | Previous Version | Graphics & Text | Print | Product List | Glossary On
Versions: 1 2 3 4 5 6 7 8 9 10 11 12 13 14 15 16 17 18 19 20 21 22 23 24 25 26 27 28 29 30 31 32 33 34 35 36 37 38 39 40 41 42 43 44 45 46 47 48 49 50
000
ASUS43 KDMX 261807
RWRIA

WEATHER ROUNDUP FOR IOWA
NATIONAL WEATHER SERVICE DES MOINES IA
100 PM CDT TUE AUG 26 2014

NOTE: "FAIR" INDICATES FEW OR NO CLOUDS BELOW 12,000 FEET WITH NO
SIGNIFICANT WEATHER AND/OR OBSTRUCTIONS TO VISIBILITY.

* - THESE STATIONS ARE NOT NWS STATIONS...THUS NOT UNDER NWS
QUALITY CONTROL.  THEY ALSO DO NOT REPORT WEATHER SUCH
AS PRECIPITATION OR FOG.

IAZ001>003-012>014-020>022-031>034-043>046-261900-
   NORTHWEST IOWA

CITY           SKY/WX    TMP DP  RH WIND       PRES   REMARKS
CARROLL *      SUNNY     72  61  68 E7        30.18F
CHEROKEE *     CLOUDY    66  59  77 N3        30.20S
DENISON *      SUNNY     72  61  68 NE7       30.17S
LE MARS *      SUNNY     68  59  73 CALM      30.20F
ORANGE CITY *  SUNNY     70  55  60 CALM      30.21F
SHELDON *      SUNNY     66  57  72 S3        30.21S
SIOUX CITY     CLOUDY    72  60  66 NE7       30.18F
6HR MIN TEMP:  63; 6HR MAX TEMP:  72; 6HR PCP: TRACE;

SPENCER        PTSUNNY   65  51  60 CALM      30.21F
6HR MIN TEMP:  56; 6HR MAX TEMP:  67;

STORM LAKE *   SUNNY     68  61  77 E6        30.20F
$$

IAZ055>058-069>071-079>083-090>094-261900-
   SOUTHWEST IOWA

CITY           SKY/WX    TMP DP  RH WIND       PRES   REMARKS
ATLANTIC *     MOSUNNY   72  64  78 NE9       30.16F
AUDUBON *      SUNNY     73  66  78 E7        30.18F
CLARINDA *     SUNNY     77  68  73 NE6G14    30.15F
COUNCIL BLFS * CLOUDY    72  68  88 E7        30.17S
CRESTON *      SUNNY     72  64  78 NE7       30.17F
HARLAN  *      MOSUNNY   72  64  78 E7        30.21F
LAMONI         CLOUDY    75  66  73 N7        30.17F
6HR MIN TEMP:  67; 6HR MAX TEMP:  75; 6HR PCP: TRACE;

RED OAK *      MOSUNNY   73  66  78 NE6G12    30.17S
SHENANDOAH *   MOSUNNY   77  68  73 NE10      30.15F
$$

IAZ047>049-059>061-072>074-084-261900-
   CENTRAL IOWA

CITY           SKY/WX    TMP DP  RH WIND       PRES   REMARKS
AMES           PTSUNNY   71  61  70 CALM      30.18F
6HR MIN TEMP:  63; 6HR MAX TEMP:  72; 6HR PCP:  0.03;

ANKENY *       SUNNY     72  63  73 VRB6      30.18R
CHARITON *     SUNNY     75  66  73 VRB6      30.17R
DES MOINES     CLOUDY    78  63  59 N8        30.17S HX  80
6HR MIN TEMP:  67; 6HR MAX TEMP:  78; 6HR PCP: TRACE;

GRINNELL*      MOSUNNY   73  63  68 N3        30.18R
KNOXVILLE *    SUNNY     75  63  64 VRB5      30.16R
MARSHALLTOWN   MOSUNNY   74  62  66 NW7       30.17R
6HR MIN TEMP:  63; 6HR MAX TEMP:  74; 6HR PCP:  0.01;

PELLA *        PTSUNNY   77  65  66 CALM      30.17S
PERRY *          N/A     70  63  78 CALM      30.18F
$$

IAZ004>006-015-016-023>025-035-036-261900-
   NORTH CENTRAL IOWA

CITY           SKY/WX    TMP DP  RH WIND       PRES   REMARKS
ALGONA *       SUNNY     68  55  64 CALM      30.21S
CLARION *      SUNNY     72  57  60 NW7       30.20R
ESTHERVILLE    MOSUNNY   66  53  63 VRB3      30.22R
6HR MIN TEMP:  55; 6HR MAX TEMP:  67;

FORT DODGE *   MOSUNNY   70  57  64 CALM      30.20F
MASON CITY     MOSUNNY   72  54  53 VRB3      30.20R
6HR MIN TEMP:  61; 6HR MAX TEMP:  73;

FOREST CITY *  SUNNY     70  54  56 CALM      30.19S
IOWA FALLS *     N/A     73  59  62 CALM      30.20S
$$

IAZ007>011-017>019-026>030-037>042-050>054-066-261900-
   NORTHEAST IOWA

CITY           SKY/WX    TMP DP  RH WIND       PRES   REMARKS
CEDAR RAPIDS   MOSUNNY   77  63  61 NE8       30.13F
6HR MIN TEMP:  65; 6HR MAX TEMP:  77; 6HR PCP:  0.01;

CHARLES CITY * SUNNY     70  57  64 VRB5      30.18F
CLINTON *      SUNNY     75  64  69 E6        30.16R
DECORAH *      SUNNY     68  55  64 CALM      30.16F
DUBUQUE        MOSUNNY   73  61  65 VRB3      30.15R
6HR MIN TEMP:  63; 6HR MAX TEMP:  73; 6HR PCP:  0.75;

MONTICELLO *   SUNNY     75  63  64 VRB5      30.14S
OELWEIN *      SUNNY     72  61  68 CALM      30.17S
WATERLOO       SUNNY     74  58  57 N5        30.15S
6HR MIN TEMP:  63; 6HR MAX TEMP:  74; 6HR PCP:  0.10;

$$

IAZ064-065-067-068-078-261900-
   EAST CENTRAL IOWA

CITY           SKY/WX    TMP DP  RH WIND       PRES   REMARKS
DAVENPORT      SUNNY     79  65  62 N8        30.14R HX  81
6HR MIN TEMP:  68; 6HR MAX TEMP:  79; 6HR PCP:  0.02;

IOWA CITY      MOSUNNY   78  66  66 VRB6      30.14F HX  80
6HR MIN TEMP:  67; 6HR MAX TEMP:  79; 6HR PCP:  0.15;

MT. PLEASANT * MOSUNNY   82  64  55 N9        30.12R HX  83
MUSCATINE *    SUNNY     81  64  57 N6        30.13R HX  82
QUAD CITIES    SUNNY     78  63  59 NE5       30.12R HX  80
6HR MIN TEMP:  70; 6HR MAX TEMP:  80; 6HR PCP:  0.06;

$$

IAZ062-063-075>077-085>089-095>099-261900-
   SOUTHEAST IOWA

CITY           SKY/WX    TMP DP  RH WIND       PRES   REMARKS
BURLINGTON     MOSUNNY   83  69  62 E8        30.09F HX  86
6HR MIN TEMP:  72; 6HR MAX TEMP:  83;

FAIRFIELD *    SUNNY     79  66  65 NE5       30.13S HX  81
FORT MADISON * MOSUNNY   84  72  65 E6        30.10F HX  89
KEOKUK *       SUNNY     84  70  61 E9        30.09F HX  88
OSKALOOSA *      N/A     78  66  66 NE6       30.14F HX  80
CENTERVILLE *  SUNNY     81  68  65 E3        30.16S HX  83
OTTUMWA        MOSUNNY   79  65  62 NE5       30.12F HX  81
6HR MIN TEMP:  68; 6HR MAX TEMP:  79; 6HR PCP:  0.01;

WASHINGTON *   SUNNY     81  68  65 NE7G16    30.14S HX  83
$$

ABBREVIATIONS USED IN REMARKS
   TC - TEMPERATURES IN CELSIUS
  WCI - WIND CHILL INDEX
   HX - HEAT INDEX
  VSB - VISIBILITY
$$



USA.gov is the U.S. government's official web portal to all federal, state and local government web resources and services.